Pine Ridge, SD

7:08 PM MDT on April 25, 2018 (GMT -0600)
Pine Ridge

Weather History for KIEN - January, 2014

Change the Weather History Date:

Thursday, January 16, 2014

  Actual Average Record
Temperature  
Mean Temperature 27 °F 24 °F  
Max Temperature 38 °F 37 °F 50 °F (2009)
Min Temperature 15 °F 10 °F -20 °F (2005)
Degree Days  
Heating Degree Days 38 41  
Month to date heating degree days 607 671  
Since 1 July heating degree days 3598 3661  
Cooling Degree Days 0 0  
Month to date cooling degree days 0 0  
Year to date cooling degree days 0 0  
Moisture  
Dew Point 14 °F    
Average Humidity 52    
Maximum Humidity 74    
Minimum Humidity 29    
Precipitation  
Precipitation 0.00 in 0.01 in 0.01 in (2008)
Month to date precipitation 0.06 0.13  
Year to date precipitation 0.06 0.13  
Sea Level Pressure  
Sea Level Pressure 30.18 in    
Wind  
Wind Speed 15 mph (NW)    
Max Wind Speed 35 mph    
Max Gust Speed 46 mph    
Visibility 10 miles    
Events      
T = Trace of Precipitation, MM = Missing Value Source: NWS Daily Summary

Daily Weather History Graph

Daily Weather History Graph

Search for Another Location

Airport or City:

Astronomy

Jan. 16, 2014 Rise Set
Actual Time 7:18 AM MST 4:42 PM MST
Civil Twilight 6:46 AM MST 5:13 PM MST
Nautical Twilight 6:11 AM MST 5:48 PM MST
Astronomical Twilight 5:37 AM MST 6:22 PM MST
Moon 5:38 PM MST (1/16) 7:10 AM MST (1/16)
Length of Visible Light 10h 26m
Length of Day
9h 24m
Full, 100% of the Moon is Illuminated
Jan 16
Full
Jan 23
Last Quarter
Jan 30
New
Feb 6
First Quarter
Feb 14
Full

Hourly Weather History & Observations

Time (MST) Temp. Windchill Dew Point Humidity Pressure Visibility Wind Dir Wind Speed Gust Speed Precip Events Conditions
12:52 AM 37.0 °F 25.9 °F 23.0 °F 57% 30.01 in 10.0 mi WNW 23.0 mph 29.9 mph N/A   Mostly Cloudy
1:52 AM 36.0 °F 29.0 °F 21.0 °F 55% 30.04 in 10.0 mi WNW 9.2 mph 24.2 mph N/A   Partly Cloudy
2:52 AM 33.1 °F 23.0 °F 25.0 °F 72% 30.05 in 10.0 mi WNW 15.0 mph - N/A   Clear
3:52 AM 32.0 °F 21.6 °F 23.0 °F 69% 30.06 in 10.0 mi WNW 15.0 mph - N/A   Clear
4:52 AM 32.0 °F 20.5 °F 19.9 °F 61% 30.07 in 10.0 mi WNW 18.4 mph 26.5 mph N/A   Clear
5:52 AM 30.9 °F 22.2 °F 17.1 °F 57% 30.09 in 10.0 mi WNW 10.4 mph - N/A   Clear
6:52 AM 28.0 °F 20.0 °F 16.0 °F 61% 30.11 in 10.0 mi NW 8.1 mph - N/A   Clear
7:52 AM 32.0 °F 20.5 °F 12.0 °F 44% 30.12 in 10.0 mi NW 18.4 mph 28.8 mph N/A   Clear
8:52 AM 34.0 °F 22.4 °F 12.0 °F 40% 30.13 in 10.0 mi NW 20.7 mph 31.1 mph N/A   Clear
9:52 AM 36.0 °F 24.7 °F 10.9 °F 36% 30.16 in 10.0 mi NW 21.9 mph 35.7 mph N/A   Clear
10:52 AM 37.0 °F 23.9 °F 8.1 °F 30% 30.17 in 10.0 mi NW 33.4 mph 44.9 mph N/A   Clear
11:52 AM 37.9 °F 26.3 °F 9.0 °F 30% 30.15 in 10.0 mi NNW 26.5 mph 38.0 mph N/A   Clear
12:52 PM 37.0 °F 26.4 °F 10.9 °F 34% 30.16 in 10.0 mi NNW 20.7 mph 40.3 mph N/A   Clear
1:52 PM 37.0 °F 24.5 °F 12.9 °F 37% 30.18 in 10.0 mi North 29.9 mph 40.3 mph N/A   Clear
2:52 PM 35.1 °F 23.3 °F 12.9 °F 40% 30.22 in 10.0 mi North 23.0 mph 38.0 mph N/A   Clear
3:52 PM 32.0 °F 19.2 °F 10.0 °F 40% 30.26 in 10.0 mi NNW 23.0 mph 34.5 mph N/A   Clear
4:52 PM 30.0 °F 19.5 °F 12.0 °F 47% 30.28 in 10.0 mi North 13.8 mph 21.9 mph N/A   Clear
5:52 PM 28.9 °F 20.4 °F 14.0 °F 54% 30.30 in 10.0 mi North 9.2 mph 17.3 mph N/A   Clear
7:52 PM 24.1 °F 16.0 °F 10.9 °F 57% 30.33 in 10.0 mi NW 6.9 mph - N/A   Clear
8:52 PM 21.0 °F 12.4 °F 10.9 °F 65% 30.33 in 10.0 mi NW 6.9 mph - N/A   Clear
9:52 PM 21.0 °F 14.6 °F 10.9 °F 65% 30.32 in 10.0 mi WNW 4.6 mph - N/A   Clear
10:52 PM 17.1 °F 11.7 °F 10.9 °F 77% 30.32 in 10.0 mi WSW 3.5 mph - N/A   Clear
11:52 PM 17.1 °F - 10.9 °F 77% 30.29 in 10.0 mi Calm Calm - N/A   Clear